Temp
-7 -8 -8 -8 -8 -8 -8 -8 -8 -8 -8 -8 -8 -8 -8 -8 -8 -9 -9 -9 -9 -9 -9 -9 -10 -10 -10 -10 -10 -9 -9 -10 -10 -10 -10 -10 -10 -10 -10 -10 -10 -10 -11
-7 -8 -8 -8 -8 -8 -8 -8 -8 -8 -8 -8 -8 -8 -8 -8 -9 -9 -9 -9 -9 -9 -9 -9 -10 -10 -10 -10 -10 -10 -10 -10 -10 -10 -10 -10 -10 -10 -10 -10 -10 -11 -11
-8 -8 -8 -8 -8 -8 -8 -8 -8 -8 -8 -8 -8 -8 -8 -8 -8 -9 -8 -9 -9 -9 -9 -9 -9 -9 -10 -10 -10 -11 -11 -11 -11 -11 -11 -11 -11 -11 -11 -11 -11 -11 -11
-8 -8 -8 -8 -8 -8 -8 -7 -8 -8 -7 -7 -7 -8 -8 -8 -8 -8 -9 -8 -8 -9 -9 -9 -10 -10 -10 -10 -11 -11 -11 -10 -11 -11 -11 -11 -11 -11 -11 -11 -11 -12 -12
-8 -8 -8 -8 -8 -8 -8 -8 -8 -8 -8 -8 -8 -8 -8 -9 -9 -9 -9 -9 -9 -9 -9 -9 -10 -10 -10 -10 -11 -10 -10 -10 -10 -11 -11 -11 -11 -11 -10 -10 -11 -11 -11
-7 -7 -8 -7 -8 -8 -8 -8 -8 -8 -8 -8 -8 -8 -9 -9 -9 -9 -9 -9 -9 -9 -9 -9 -9 -9 -9 -10 -11 -11 -10 -10 -10 -10 -10 -10 -11 -11 -11 -11 -11 -11 -11
-7 -7 -7 -8 -8 -8 -8 -8 -8 -8 -8 -8 -8 -8 -8 -9 -9 -9 -9 -8 -8 -9 -9 -9 -9 -10 -10 -10 -10 -10 -10 -10 -10 -11 -10 -10 -11 -11 -11 -11 -11 -11 -11
-7 -7 -7 -7 -7 -8 -8 -8 -8 -8 -8 -8 -8 -8 -8 -8 -8 -8 -9 -9 -9 -8 -8 -8 -9 -9 -10 -10 -10 -10 -10 -10 -10 -10 -10 -10 -10 -11 -11 -11 -12 -12 -11
-7 -7 -7 -7 -8 -8 -8 -8 -8 -8 -8 -8 -8 -8 -8 -8 -8 -8 -8 -9 -9 -9 -9 -8 -8 -9 -9 -9 -10 -10 -10 -10 -10 -10 -10 -10 -10 -11 -12 -12 -12 -12 -11
-7 -7 -8 -8 -8 -8 -8 -8 -8 -8 -8 -8 -8 -8 -8 -8 -8 -8 -8 -9 -9 -9 -9 -9 -9 -9 -9 -9 -9 -9 -10 -10 -10 -10 -10 -10 -10 -11 -11 -12 -12 -12 -12
-7 -7 -8 -8 -8 -8 -8 -8 -9 -9 -9 -9 -9 -9 -9 -9 -8 -8 -8 -9 -8 -8 -9 -9 -9 -9 -9 -9 -9 -10 -10 -10 -10 -10 -10 -10 -10 -11 -12 -12 -13 -13 -13
-8 -7 -8 -8 -8 -8 -8 -8 -9 -9 -9 -9 -9 -9 -9 -9 -9 -9 -9 -9 -9 -9 -9 -9 -9 -9 -9 -10 -10 -10 -10 -10 -10 -10 -10 -10 -10 -12 -13 -13 -13 -13 -13
-8 -8 -8 -8 -8 -8 -8 -8 -8 -9 -9 -9 -9 -9 -9 -9 -9 -9 -9 -9 -9 -9 -9 -10 -10 -10 -10 -10 -10 -10 -10 -10 -10 -10 -10 -11 -11 -11 -13 -13 -13 -13 -13
-8 -8 -8 -8 -8 -8 -8 -8 -8 -8 -9 -9 -9 -10 -10 -10 -10 -9 -9 -9 -9 -9 -9 -10 -10 -10 -10 -10 -10 -10 -10 -11 -11 -11 -11 -11 -11 -11 -13 -13 -13 -13 -13
-8 -8 -8 -8 -8 -8 -8 -8 -8 -8 -9 -9 -9 -10 -10 -10 -10 -10 -10 -10 -10 -10 -10 -10 -10 -10 -10 -11 -11 -11 -11 -11 -11 -11 -11 -11 -12 -12 -13 -13 -13 -14 -14
-8 -8 -8 -8 -8 -8 -8 -8 -8 -8 -9 -9 -10 -10 -10 -10 -10 -10 -10 -10 -10 -10 -10 -10 -11 -11 -11 -11 -11 -11 -11 -12 -11 -11 -12 -12 -12 -12 -14 -14 -14 -14 -14
-9 -8 -8 -8 -8 -8 -8 -8 -8 -9 -8 -9 -10 -10 -10 -10 -10 -10 -10 -10 -11 -11 -10 -10 -11 -11 -11 -12 -12 -12 -11 -12 -12 -12 -12 -12 -13 -13 -14 -14 -14 -14 -14
-9 -9 -8 -8 -8 -8 -9 -8 -9 -9 -9 -9 -10 -10 -10 -10 -10 -10 -10 -11 -11 -11 -11 -11 -11 -12 -12 -12 -12 -12 -12 -12 -12 -12 -13 -13 -14 -14 -14 -14 -14 -14 -15
-9 -9 -9 -9 -9 -9 -9 -9 -9 -9 -9 -9 -10 -11 -11 -11 -11 -11 -11 -11 -11 -12 -12 -12 -12 -12 -12 -12 -12 -12 -12 -12 -13 -14 -14 -13 -13 -14 -14 -14 -14 -15 -15
-10 -10 -10 -9 -9 -9 -9 -9 -9 -9 -10 -10 -10 -11 -11 -11 -11 -11 -12 -12 -12 -12 -12 -13 -13 -13 -13 -13 -13 -13 -12 -13 -14 -14 -14 -14 -14 -14 -14 -15 -15 -15 -15
-10 -10 -10 -10 -10 -10 -9 -10 -10 -10 -10 -10 -11 -11 -12 -12 -12 -12 -12 -12 -12 -13 -13 -13 -13 -13 -13 -13 -14 -14 -14 -13 -14 -14 -13 -14 -14 -14 -15 -15 -15 -15 -16
-11 -11 -11 -11 -11 -10 -10 -10 -10 -11 -11 -11 -11 -11 -12 -12 -12 -12 -12 -12 -13 -13 -13 -13 -13 -13 -13 -14 -14 -14 -14 -14 -14 -13 -14 -14 -14 -15 -15 -16 -16 -16 -16
-13 -12 -12 -11 -11 -11 -11 -10 -10 -10 -11 -11 -11 -11 -12 -12 -12 -12 -12 -13 -13 -13 -13 -13 -14 -14 -13 -14 -14 -14 -15 -14 -14 -14 -14 -14 -15 -15 -16 -16 -16 -16 -16
-13 -13 -12 -12 -13 -12 -11 -12 -12 -11 -11 -11 -12 -12 -12 -12 -12 -12 -12 -13 -13 -13 -13 -13 -13 -13 -14 -14 -14 -15 -15 -15 -14 -14 -14 -14 -15 -16 -16 -16 -16 -16 -17
-13 -13 -12 -12 -12 -12 -12 -12 -12 -12 -12 -12 -12 -13 -12 -12 -12 -12 -12 -13 -13 -13 -13 -13 -13 -14 -14 -14 -15 -15 -15 -15 -15 -15 -15 -15 -16 -16 -16 -17 -17 -17 -17
-14 -13 -13 -12 -12 -12 -12 -12 -12 -12 -12 -12 -13 -14 -13 -12 -12 -13 -13 -13 -13 -14 -14 -14 -14 -14 -14 -14 -15 -15 -15 -15 -15 -15 -16 -16 -16 -16 -16 -17 -17 -17 -17
Height
5903 5903 5903 5904 5904 5904 5904 5904 5904 5904 5904 5904 5903 5903 5903 5902 5902 5901 5900 5900 5899 5898 5897 5896 5895 5894 5893 5891 5890 5888 5886 5884 5881 5880 5878 5875 5873 5870 5868 5864 5861 5858 5855
5902 5902 5902 5902 5902 5903 5903 5903 5903 5903 5903 5902 5902 5902 5901 5900 5900 5899 5898 5897 5895 5894 5893 5892 5891 5889 5888 5887 5885 5883 5881 5878 5876 5873 5871 5868 5865 5863 5860 5856 5853 5849 5846
5901 5901 5901 5901 5901 5901 5901 5901 5901 5901 5900 5900 5899 5898 5898 5898 5897 5895 5894 5894 5893 5891 5890 5888 5886 5885 5884 5881 5879 5876 5875 5873 5871 5868 5865 5861 5857 5854 5851 5848 5844 5841 5837
5898 5899 5899 5899 5899 5900 5899 5900 5899 5899 5899 5898 5898 5898 5897 5896 5895 5894 5893 5892 5890 5888 5886 5885 5882 5881 5878 5875 5872 5870 5869 5867 5864 5862 5858 5854 5850 5846 5843 5838 5833 5831 5827
5897 5897 5897 5898 5898 5898 5898 5898 5898 5898 5897 5897 5896 5895 5894 5893 5892 5891 5889 5888 5888 5886 5884 5881 5878 5876 5874 5872 5869 5865 5863 5861 5858 5854 5851 5847 5843 5839 5833 5829 5825 5822 5817
5897 5897 5897 5897 5897 5897 5897 5896 5897 5896 5895 5895 5895 5894 5893 5892 5890 5889 5887 5885 5882 5880 5880 5879 5876 5873 5870 5868 5865 5862 5860 5857 5854 5850 5845 5841 5837 5832 5827 5822 5817 5813 5799
5894 5895 5894 5895 5895 5895 5895 5895 5894 5894 5893 5892 5892 5891 5890 5889 5886 5885 5884 5883 5881 5878 5875 5873 5872 5870 5867 5864 5861 5858 5854 5851 5847 5844 5840 5836 5831 5825 5821 5815 5812 5809 5806
5889 5890 5891 5891 5891 5891 5891 5891 5891 5890 5889 5888 5888 5888 5888 5887 5885 5883 5881 5879 5877 5875 5872 5870 5868 5866 5864 5860 5857 5854 5850 5846 5842 5839 5835 5830 5824 5817 5812 5808 5806 5803 5799
5885 5885 5885 5886 5886 5886 5886 5886 5885 5886 5885 5885 5884 5883 5882 5882 5881 5878 5877 5874 5872 5870 5867 5865 5862 5860 5860 5857 5853 5849 5845 5842 5837 5832 5827 5822 5816 5811 5805 5801 5798 5794 5790
5879 5879 5880 5879 5880 5880 5881 5880 5880 5880 5879 5878 5877 5877 5876 5876 5875 5876 5872 5870 5868 5865 5862 5859 5856 5853 5851 5849 5846 5842 5838 5832 5828 5823 5819 5813 5806 5802 5797 5793 5788 5785 5781
5869 5871 5873 5872 5872 5873 5873 5874 5873 5872 5872 5872 5871 5870 5870 5868 5867 5866 5867 5863 5862 5860 5857 5853 5849 5846 5843 5840 5837 5833 5829 5825 5820 5816 5812 5806 5800 5794 5789 5784 5779 5776 5774
5860 5861 5863 5865 5864 5865 5865 5865 5864 5864 5863 5863 5864 5862 5861 5860 5860 5857 5857 5856 5854 5852 5851 5848 5844 5839 5835 5831 5828 5824 5822 5817 5813 5809 5805 5800 5793 5786 5779 5774 5770 5768 5766
5851 5853 5853 5854 5856 5856 5856 5855 5855 5855 5855 5855 5854 5854 5851 5851 5851 5850 5848 5846 5845 5843 5841 5839 5835 5832 5828 5824 5820 5817 5814 5808 5804 5800 5796 5790 5782 5776 5771 5766 5762 5759 5755
5841 5842 5843 5844 5845 5846 5846 5846 5846 5846 5846 5846 5845 5844 5842 5841 5839 5839 5839 5838 5837 5835 5834 5832 5828 5825 5820 5816 5812 5809 5804 5800 5795 5790 5784 5780 5772 5766 5762 5758 5753 5749 5745
5828 5831 5832 5834 5835 5835 5835 5836 5836 5836 5835 5836 5836 5834 5833 5832 5830 5828 5827 5826 5825 5825 5824 5823 5819 5815 5811 5807 5804 5800 5796 5791 5786 5780 5775 5770 5764 5757 5754 5751 5746 5740 5735
5814 5817 5820 5822 5822 5823 5823 5823 5825 5826 5825 5826 5826 5824 5822 5822 5821 5820 5819 5817 5814 5812 5810 5812 5809 5805 5802 5797 5794 5791 5786 5780 5774 5768 5764 5758 5753 5748 5742 5740 5734 5729 5724
5799 5800 5805 5809 5810 5810 5811 5811 5812 5812 5813 5814 5814 5813 5812 5810 5810 5809 5807 5806 5804 5802 5800 5799 5797 5794 5791 5788 5786 5782 5776 5770 5764 5758 5752 5746 5742 5738 5734 5729 5723 5718 5713
5785 5787 5788 5791 5796 5797 5798 5799 5799 5800 5800 5801 5802 5800 5800 5799 5799 5798 5797 5795 5794 5792 5790 5788 5786 5784 5781 5778 5775 5770 5765 5758 5752 5747 5742 5737 5733 5729 5724 5719 5713 5707 5701
5772 5773 5774 5777 5779 5783 5785 5786 5786 5786 5786 5788 5789 5788 5788 5787 5787 5787 5785 5784 5783 5781 5780 5778 5776 5774 5770 5767 5763 5758 5754 5748 5742 5737 5734 5728 5723 5718 5714 5708 5702 5696 5690
5756 5759 5761 5764 5766 5768 5770 5772 5774 5775 5774 5774 5775 5775 5774 5775 5774 5775 5773 5773 5771 5770 5769 5767 5766 5762 5760 5756 5751 5747 5742 5736 5731 5727 5723 5718 5713 5707 5702 5696 5690 5684 5678
5740 5742 5745 5748 5751 5754 5757 5759 5760 5761 5761 5761 5762 5761 5761 5762 5761 5762 5761 5761 5760 5759 5758 5757 5755 5752 5748 5745 5741 5734 5729 5725 5720 5715 5710 5705 5701 5695 5689 5683 5678 5673 5667
5725 5727 5730 5733 5736 5738 5741 5744 5746 5747 5747 5748 5749 5749 5748 5747 5748 5749 5748 5749 5749 5748 5747 5746 5743 5740 5736 5732 5729 5724 5718 5713 5709 5705 5699 5694 5688 5681 5676 5671 5666 5662 5657
5707 5712 5715 5717 5720 5723 5726 5727 5728 5730 5732 5733 5734 5734 5733 5734 5735 5735 5735 5736 5736 5736 5735 5734 5731 5729 5725 5720 5717 5710 5705 5702 5697 5692 5687 5682 5675 5669 5663 5659 5655 5649 5644
5686 5692 5696 5699 5703 5708 5710 5711 5712 5711 5714 5717 5718 5717 5717 5719 5721 5721 5722 5722 5723 5722 5722 5720 5719 5715 5712 5707 5702 5698 5695 5691 5686 5680 5675 5670 5663 5657 5652 5647 5643 5637 5632
5667 5671 5675 5680 5684 5689 5692 5695 5696 5694 5698 5700 5698 5699 5702 5705 5706 5706 5707 5708 5709 5708 5708 5707 5705 5701 5697 5693 5688 5683 5680 5677 5673 5666 5661 5656 5650 5645 5639 5633 5628 5624 5619
5646 5649 5656 5660 5664 5669 5671 5675 5678 5677 5677 5678 5678 5681 5686 5689 5690 5692 5692 5692 5693 5693 5692 5691 5689 5687 5683 5678 5674 5668 5667 5662 5658 5653 5646 5642 5636 5631 5626 5620 5615 5610 5605
Wind_Speed
1 0 0 1 1 1 1 2 3 5 5 6 7 7 8 9 9 9 12 13 14 15 16 18 19 21 22 23 24 25 27 28 30 31 32 34 35 36 39 42 44 45 45
1 1 1 1 1 1 2 2 3 3 4 5 5 6 8 10 11 12 12 15 17 19 19 20 22 24 25 27 29 30 31 33 35 38 40 41 43 43 44 47 49 49 49
2 2 3 3 2 4 3 5 5 5 7 8 9 10 10 12 13 13 14 14 16 18 20 22 25 26 26 29 31 30 31 34 36 38 42 44 46 47 47 49 51 52 53
2 2 2 2 3 2 3 4 5 7 6 6 7 7 7 7 8 11 13 14 16 18 20 20 23 24 25 29 30 25 26 29 32 32 29 33 37 42 46 49 51 51 52
3 3 3 1 0 1 2 2 3 4 4 5 6 7 9 10 12 13 15 16 15 14 16 18 19 20 20 19 22 20 20 21 23 26 30 31 30 33 35 37 38 41 44
5 5 4 3 3 3 3 5 4 5 7 5 7 8 8 11 13 16 16 17 20 22 17 16 16 17 19 19 19 21 24 26 29 32 36 39 38 36 36 39 41 45 40
13 11 11 9 9 8 7 8 9 11 11 12 11 11 12 14 17 18 21 21 21 23 21 21 19 18 20 18 20 24 26 29 31 34 36 38 41 43 45 42 40 36 40
21 21 18 17 15 14 15 14 14 15 16 18 17 17 17 17 18 19 21 23 25 25 25 25 24 23 24 24 26 28 31 33 36 39 38 40 49 43 42 39 37 37 42
25 27 27 25 23 22 20 21 20 20 20 21 22 21 22 21 21 23 23 25 26 27 28 29 29 29 28 29 31 33 34 35 37 40 40 48 52 45 38 40 41 41 35
27 29 30 31 30 29 26 26 27 26 26 25 25 25 26 26 24 21 25 26 27 28 29 30 30 33 34 33 34 35 36 39 41 42 47 51 58 49 42 46 46 39 36
29 31 33 34 34 32 31 31 31 32 31 29 30 30 29 30 29 28 25 30 28 29 30 32 34 36 37 38 38 38 38 40 45 47 49 51 57 53 46 43 41 36 34
34 34 34 36 38 36 34 34 35 35 35 34 33 34 34 33 31 32 31 31 33 34 32 32 35 38 40 41 42 42 43 45 48 51 51 52 55 47 40 43 39 34 36
37 36 38 38 38 40 39 39 38 37 35 35 36 36 38 37 35 34 34 34 35 36 37 37 37 39 41 44 44 45 45 48 50 52 51 54 52 47 38 29 31 35 42
41 40 40 42 41 42 42 43 43 41 38 36 36 38 40 39 40 37 36 36 36 38 38 38 39 41 43 45 46 46 47 49 53 54 53 55 54 49 36 36 35 47 44
47 44 43 43 45 46 46 46 46 45 44 41 38 39 41 40 40 41 40 40 41 40 40 39 41 42 44 46 47 47 48 51 52 55 54 57 48 51 33 35 46 50 45
51 50 47 45 46 48 47 48 48 48 47 44 39 41 44 42 42 42 42 43 43 44 45 41 42 42 45 47 48 49 51 52 54 58 58 54 45 43 42 46 45 47 47
55 56 52 48 48 50 49 50 50 51 49 46 40 40 43 44 43 43 44 43 44 45 45 45 44 46 47 49 49 50 54 54 57 58 58 54 41 35 43 46 48 49 50
59 58 58 54 52 52 53 53 53 53 52 49 44 43 43 44 44 43 44 44 46 45 46 46 46 48 49 51 50 52 52 55 59 57 44 38 39 42 44 46 49 51 52
57 59 60 59 57 55 55 55 55 55 55 52 47 45 45 45 45 44 44 45 45 45 47 47 46 49 50 51 52 50 54 58 60 43 40 41 43 44 46 49 52 53 56
55 56 60 60 60 59 57 56 56 55 55 55 51 48 48 47 46 45 46 46 45 46 47 46 48 50 51 51 53 55 62 67 46 44 43 42 44 46 49 51 54 53 51
62 61 59 59 60 60 59 58 57 56 57 56 53 54 52 50 48 46 47 47 46 48 47 47 49 50 51 56 59 62 50 44 43 41 43 44 49 51 52 51 51 51 49
61 61 57 58 62 61 60 62 61 58 59 55 54 56 56 57 54 52 50 49 48 49 50 51 53 53 53 58 59 51 44 42 42 44 45 48 52 53 51 51 51 51 48
72 67 63 62 63 63 63 63 60 59 56 56 58 60 61 58 57 59 54 52 51 52 53 54 55 54 58 61 57 44 40 40 42 44 47 51 53 50 48 51 51 48 46
73 71 72 71 69 67 65 60 57 62 67 60 60 64 65 61 62 59 57 55 54 55 56 58 58 59 62 65 65 40 37 40 42 45 49 52 54 49 49 49 49 48 48
64 66 69 71 72 72 69 66 67 68 69 63 60 58 58 61 62 62 61 58 57 58 60 61 61 62 63 66 71 44 41 41 43 48 51 54 54 51 50 49 49 50 51
66 67 65 64 65 67 68 73 71 69 75 69 73 60 57 63 64 64 62 60 62 62 62 64 64 66 70 68 66 48 52 42 47 51 52 52 52 51 50 54 55 53 53
Wind_Direction
143 148 212 176 222 236 278 302 316 324 330 331 332 331 323 316 314 316 315 311 308 304 305 305 306 305 305 304 304 305 306 306 305 304 302 299 297 297 299 298 300 299 301
337 13 15 31 335 335 332 340 341 330 331 332 330 327 324 321 319 314 305 303 303 303 303 304 304 303 302 301 301 301 301 300 301 301 300 298 296 295 295 294 294 295 295
259 263 293 308 320 334 351 356 3 1 4 6 4 6 1 356 350 342 337 324 316 311 310 309 308 310 311 307 304 299 300 301 300 299 298 296 294 294 293 291 291 291 291
302 311 291 284 303 341 354 24 17 18 19 19 18 2 352 344 340 331 325 327 333 331 329 322 317 316 312 315 328 318 303 307 308 309 329 330 318 304 301 300 297 295 293
326 331 328 5 109 323 2 356 1 7 1 1 359 346 344 335 332 325 323 329 325 326 332 329 325 322 316 322 337 344 336 330 327 323 316 322 316 311 318 310 308 301 296
276 277 260 255 235 253 287 305 308 312 309 315 320 326 322 319 317 319 320 318 319 321 330 326 325 323 316 317 320 325 326 323 320 320 317 319 314 310 310 315 311 311 285
260 258 262 258 262 265 268 277 291 297 298 303 309 307 313 315 313 317 317 317 315 318 320 322 325 319 317 318 322 324 327 327 329 327 327 321 315 309 307 309 311 299 304
260 263 262 266 268 272 280 282 287 290 295 299 301 303 301 303 304 306 310 309 309 313 316 321 321 320 314 312 314 312 313 318 320 321 318 323 327 308 305 307 308 300 312
260 263 263 265 265 268 269 276 281 284 289 294 295 300 299 299 301 302 302 302 305 307 310 316 318 316 317 313 313 314 313 314 317 322 324 328 334 319 307 301 303 305 308
255 259 261 261 260 260 262 265 270 275 279 283 287 290 294 295 296 294 296 296 298 299 301 305 308 310 315 316 315 315 314 317 317 322 324 326 330 326 311 310 311 305 303
260 258 257 259 260 260 260 261 265 268 270 275 281 285 288 291 294 294 295 296 297 298 301 304 306 308 311 313 315 316 316 315 316 319 322 325 327 321 310 308 308 305 306
258 262 260 257 260 262 263 261 261 265 270 274 277 280 283 286 289 293 295 295 297 298 299 299 303 306 309 311 314 315 318 315 315 317 321 322 323 317 311 307 308 306 312
258 260 262 260 258 260 262 265 266 265 267 271 274 276 279 283 285 287 292 294 297 299 301 303 303 306 307 309 311 313 314 314 315 315 317 321 322 312 304 308 310 306 317
256 258 260 261 262 263 266 268 271 271 268 268 270 273 276 281 284 287 289 292 292 294 297 300 301 303 304 307 309 311 314 314 314 314 315 321 319 310 299 295 306 312 322
257 256 256 258 260 264 268 270 272 273 273 269 268 270 273 276 281 285 289 292 294 297 298 301 301 302 304 306 309 310 313 312 311 311 311 315 315 307 304 293 302 314 312
258 260 259 258 259 261 265 270 272 273 274 271 266 269 272 276 278 282 286 289 292 295 297 300 300 300 302 305 308 312 311 310 309 309 311 315 310 304 302 306 310 308 309
256 260 260 257 256 259 261 265 269 271 272 271 267 268 273 278 281 283 284 286 288 292 295 299 299 300 303 308 309 309 308 309 311 312 313 318 309 302 300 305 306 306 303
254 255 257 257 253 255 259 262 266 269 270 271 269 271 273 278 281 282 284 286 287 291 294 295 297 300 304 306 308 309 309 313 315 316 309 303 306 306 306 305 302 302 307
250 253 255 255 255 255 257 260 263 265 269 270 269 270 275 277 279 283 285 284 285 288 291 292 295 299 303 307 307 308 309 309 313 309 309 312 313 312 308 306 305 307 307
255 254 257 258 258 259 259 261 263 266 268 271 271 270 272 275 279 281 283 283 283 285 287 288 295 299 304 306 304 305 306 308 302 306 308 312 314 312 308 304 307 308 309
254 255 256 258 259 260 262 263 265 266 268 270 269 270 272 273 278 283 282 282 282 284 283 286 293 297 303 305 304 304 305 305 310 304 305 310 312 312 309 307 307 308 307
256 256 256 259 262 263 264 265 267 266 267 268 268 272 273 271 275 282 282 280 281 282 282 286 291 296 300 307 311 302 302 303 306 307 306 309 311 310 307 308 309 308 307
256 258 260 261 261 261 263 266 267 267 265 265 266 269 269 272 273 277 279 278 280 280 280 285 287 293 294 307 308 303 303 304 303 307 309 308 307 305 303 308 307 307 308
250 256 259 260 258 260 257 262 265 264 261 265 265 265 263 268 271 273 275 275 278 279 279 282 286 292 296 305 308 298 303 304 305 308 304 302 301 303 305 309 308 309 309
249 250 250 251 252 255 257 259 261 264 262 265 264 264 264 267 269 271 272 273 276 276 277 281 286 290 299 306 305 288 307 310 301 304 300 298 300 301 308 311 308 307 308
250 251 252 252 253 252 253 253 255 258 261 262 260 258 264 264 268 269 268 271 273 273 276 280 284 291 295 297 299 286 305 308 304 303 299 298 302 301 305 309 308 305 306